Regional Weather Roundup
Issued by NWS

Home | Current Version | Previous Version | Graphics & Text | Print | Product List | Glossary On
Versions: 1 2 3 4 5 6 7 8 9 10 11 12 13 14 15 16 17 18 19 20 21 22 23 24 25 26 27 28 29 30 31 32 33 34 35 36 37 38 39 40 41 42 43 44 45 46 47 48 49 50
000
ASUS43 KBIS 291602
RWRND

NORTH DAKOTA REGIONAL WEATHER ROUNDUP
NATIONAL WEATHER SERVICE BISMARCK ND
1100 AM CDT FRI MAY 29 2015

NOTE: "FAIR" INDICATES FEW OR NO CLOUDS BELOW 12,000 FEET WITH NO
SIGNIFICANT WEATHER AND/OR OBSTRUCTIONS TO VISIBILITY.


NDZ001>003-009>011-017-291700-
NORTHWEST NORTH DAKOTA

CITY           SKY/WX    TMP DP  RH WIND       PRES   REMARKS
WILLISTON      CLOUDY    47  33  58 N9G20     30.33R
MINOT          CLOUDY    46  33  60 NW17      30.27R
MINOT AFB      CLOUDY    45  40  82 N14G21    30.27R
$$

NDZ018>021-031>035-040>046-291700-
SOUTHWEST NORTH DAKOTA

CITY           SKY/WX    TMP DP  RH WIND       PRES   REMARKS
BISMARCK       CLOUDY    51  35  54 N18G25    30.22R
DICKINSON      CLOUDY    45  33  63 N16       30.26R
GARRISON         N/A     47  35  63 N12G20    30.26R
HETTINGER ARPT CLOUDY    46  36  68 N18G25    30.26R
$$

NDZ004>008-012>016-024-026-027-054-291700-
NORTHEAST NORTH DAKOTA

CITY           SKY/WX    TMP DP  RH WIND       PRES   REMARKS
GRAND FORKS    CLOUDY    45  37  73 N26G33    30.15R
GRND FRKS AFB  CLOUDY    47  36  65 N29G35    30.15S
DEVILS LAKE    CLOUDY    46  30  53 N23G31    30.20S
$$

NDZ022-023-025-028>030-036>039-047>053-291700-
SOUTHEAST NORTH DAKOTA

CITY           SKY/WX    TMP DP  RH WIND       PRES   REMARKS
FARGO          CLOUDY    47  41  80 N30       30.10R
JAMESTOWN      CLOUDY    50  40  68 N28G35    30.15R
$$



USA.gov is the U.S. government's official web portal to all federal, state and local government web resources and services.